Overview Statistics Trail Chart Weather Telemetry Raw packets
 

This is the latest recevied weather packets stored in our database for station/object K4IR. If no packets are shown the sender has not sent any weather packets the latest 10 day(s).

<< 23 24 25 26 27 28 29 >>
Time Temp. Humidity Pressure Rain* Wind** Luminosity Snow
1788277550 30.56° C 74% 1019.5 hPa 0 mm - 700 W/m² -
1788276946 30° C 70% 1019.4 hPa 0 mm - 120 W/m² -
1788276340 30° C 75% 1019.4 hPa 0 mm - 68 W/m² -
1788275735 29.44° C 77% 1019.4 hPa 0 mm - 66 W/m² -
1788275133 28.89° C 78% 1019.6 hPa 0 mm - 62 W/m² -
1788274530 28.89° C 81% 1019.6 hPa 0 mm - 59 W/m² -
1788273926 28.89° C 80% 1019.7 hPa 0 mm - 58 W/m² -
1788273327 28.33° C 81% 1019.7 hPa 0 mm - 249 W/m² -
1788272719 27.78° C 81% 1019.9 hPa 0 mm - 96 W/m² -
1788272114 27.78° C 83% 1019.7 hPa 0 mm - 235 W/m² -
1788271514 26.11° C 92% 1019.6 hPa 0 mm - 439 W/m² -
1788270914 25.56° C 98% 1019.9 hPa 0 mm - 84 W/m² -
1788270311 25.56° C 99% 1019.5 hPa 0 mm - 61 W/m² -
1788269710 25.56° C 99% 1019.7 hPa 0 mm - 66 W/m² -
1788269109 25° C 99% 1019.7 hPa 0 mm - 95 W/m² -
1788268509 25° C 99% 1019.6 hPa 0 mm - 117 W/m² -
1788267904 24.44° C 99% 1019.7 hPa 0 mm - 130 W/m² -
1788267302 24.44° C 99% 1019.6 hPa 0 mm - 131 W/m² -
1788266697 24.44° C 99% 1019.6 hPa 0 mm - 129 W/m² -
1788266093 23.89° C 99% 1019.4 hPa 0 mm - 103 W/m² -
1788265490 23.89° C 99% 1019.5 hPa 0 mm - 83 W/m² -
1788264885 23.33° C 99% 1019.5 hPa 0 mm - 79 W/m² -
1788264280 22.78° C 99% 1019.4 hPa 0 mm - 68 W/m² -
1788263676 22.78° C 99% 1019.1 hPa 0 mm - 56 W/m² -
1788263075 22.22° C 99% 1019.2 hPa 0 mm - 39 W/m² -

* Rain latest hour (hover to see other rain measurements)
** Current wind speed in m/s (hover to see current wind gust speed)